Preview of NWS' New Version of Forecast
This preview is not operational and should not be used for support decisions.

Regional Weather Roundup (RWR)

Issued by National Weather Service (NWS)

                            
000
ASUS43 KDTX 170710
RWRMI 
MICHIGAN HOURLY REGIONAL WEATHER ROUNDUP
NATIONAL WEATHER SERVICE DETROIT/PONTIAC MI
200 AM EST SUN FEB 17 2019

NOTE: "FAIR" INDICATES FEW OR NO CLOUDS BELOW 12,000 FEET WITH NO
SIGNIFICANT WEATHER AND/OR OBSTRUCTION TO VISIBILITY.

MIZ047>049-052>055-059>063-066>070-074>076-081>083-170800-
SOUTHEAST LOWER MICHIGAN
  
CITY           SKY/WX    TMP DP  RH WIND       PRES   REMARKS
ADRIAN         CLOUDY    24  16  71 E13       30.05F WCI  12          
ALMA           MOCLDY    11   8  87 NE6       30.09F WCI   1          
ANN ARBOR      CLOUDY    23  16  74 NE9       30.05F WCI  13          
BAD AXE        CLOUDY    17  15  91 CALM      30.11S                  
CARO           CLOUDY    20  14  79 E6        30.11F WCI  12          
DETROIT CITY   CLOUDY    24  14  65 E10       30.09F WCI  14          
DETROIT        FLURRIES  24  14  65 E8        30.08F WCI  15          
FLINT          CLOUDY    22  14  71 SE9       30.08F WCI  12          
GROSSE ILE     CLOUDY    24  17  72 E9        30.07F WCI  15          
HILLSDALE      CLOUDY    23  16  73 E12G18    30.01S WCI  12          
HOWELL         CLOUDY    23  15  70 E7        30.05S WCI  15          

CITY           SKY/WX    TMP DP  RH WIND       PRES   REMARKS
JACKSON        CLOUDY    23  16  74 E16       30.03S WCI  10          
LAMBERTVILLE   CLOUDY    25  19  77 E6        30.06S WCI  18          
LANSING        CLOUDY    15  12  88 E7        30.06F WCI   5          
LAPEER         CLOUDY    23  14  69 E5        30.09F WCI  16          
MASON          CLOUDY    23  16  73 E6        30.05F WCI  16          
MONROE         CLOUDY    25  19  80 NE8       30.06F WCI  16          
MT. CLEMENS    CLOUDY    24  17  74 E10         N/A  WCI  14          
PONTIAC        CLOUDY    22  15  75 E9        30.06F WCI  12          
PORT HOPE        N/A     25  15  66 N6        30.10F WCI  18          
PORT HURON     CLOUDY    23  16  74 E8        30.10F WCI  14          
TRI CITIES     CLOUDY    20  13  74 E10       30.11F WCI   9          
MIDLAND        CLOUDY    13  11  89 NE5       30.11F WCI   6          
TROY           CLOUDY    25  15  65 E8        30.10S WCI  16          
SAGINAW HB     CLOUDY    21  14  73 E9        30.11F WCI  11          
$$
MIZ043>046-050>051-056>058-064>065-071>073-077>080-170800-
SOUTHWEST LOWER MICHIGAN
  
CITY           SKY/WX    TMP DP  RH WIND       PRES   REMARKS
BATTLE CREEK   CLOUDY    23  15  71 E9        30.03R WCI  13          
BENTON HARBOR  CLOUDY    25  16  68 E10G22    30.01F WCI  15          
BIG RAPIDS     FAIR      11   9  91 CALM      30.05F                  
COLDWATER      CLOUDY    25  19  77 SE12G17   30.03R WCI  14          
FREMONT        FAIR      15  11  84 E7        30.04F WCI   5          
HOLLAND        FAIR      17  12  80 E7        30.03F WCI   8          
GRAND RAPIDS   FAIR      15  10  80 E9        30.03F WCI   3          
IONIA          FAIR      14  10  83 NE7       30.05F WCI   4          
KALAMAZOO      CLOUDY    24  15  68 SE13      30.02S WCI  12          
LUDINGTON      FAIR      16  11  79 E5        30.07F WCI   9          
MARSHALL       CLOUDY    24  17  75 E10       30.03R WCI  13          
MOUNT PLEASANT CLOUDY    12   8  83 E3        30.09F                  
MUSKEGON       FAIR      18  11  74 E7        30.05F WCI   9          
SOUTH HAVEN    CLOUDY    25  17  70 E9        30.02S WCI  15          
$$
MIZ016>042-170800-
NORTHERN LOWER MICHIGAN
  
CITY           SKY/WX    TMP DP  RH WIND       PRES   REMARKS
ALPENA         FAIR       0  -4  83 CALM      30.14S                  
BEAVER ISLAND  CLOUDY     8   5  89 CALM      30.15S                  
BELLAIRE       FAIR      -2  -7  81 CALM      30.16S                  
CADILLAC       MOCLDY     8   5  87 E3        30.04F                  
CHARLEVOIX     FAIR       6   2  86 CALM      30.17F                  
FRANKFORT      FAIR      17  11  75 E6        30.11F WCI   9          
GAYLORD        FAIR      -5 -10  79 CALM      30.08S                  
GRAYLING       FAIR     -12 -16  82 CALM      30.10S                  
HARBOR SPRINGS FAIR       6   3  89 CALM      30.14S                  
HOUGHTON LAKE  CLOUDY    11   7  84 NE6       30.09S WCI   1          
MANISTEE       FAIR      15  10  80 E13       30.07F WCI   1          
OSCODA         FAIR       3  -1  80 CALM      30.13S                  
PELLSTON       FAIR      -5  -9  83 CALM      30.15F                  
ROGERS CITY    FAIR       1  -2  86 SW3       30.15S                  
TRAVERSE CITY  MOCLDY     6   2  83 CALM      30.12F                  
$$
MIZ007>008-015-170800-
EASTERN UPPER MICHIGAN
  
CITY           SKY/WX    TMP DP  RH WIND       PRES   REMARKS
KINROSS        FAIR       1  -2  87 NE5       30.14F WCI  -9          
MACKINAC ISLAN FAIR       7   4  88 N6        30.15S WCI  -3          
NEWBERRY       LGT SNOW  11   9  92 MISG      30.13S                  
S. S. MARIE    FAIR       6   2  83 NE5       30.15S WCI  -3          
MUNISING         N/A     16  12  84 S3        30.14F                  
$$
MIZ004>006-011>014-085-170800-
CENTRAL UPPER MICHIGAN
  
CITY           SKY/WX    TMP DP  RH WIND       PRES   REMARKS
MANISTIQUE     MOCLDY    10   6  81 CALM      30.13F                  
ESCANABA       FAIR      -4  -7  87 N5        30.14F WCI -15          
MENOMINEE      CLOUDY    16  10  77 NE16      30.11F WCI   1          
SAWYER-GWINN   FLURRIES   8   5  88 CALM      30.09F                  
$$
MIZ001>003-009>011-084-170800-
WESTERN UPPER MICHIGAN
  
CITY           SKY/WX    TMP DP  RH WIND       PRES   REMARKS
IRON MOUNTAIN  FAIR       2  -2  83 NW3       30.08F                  
HOUGHTON       FAIR       8   1  73 NE6       30.12S WCI  -2          
COPPER HARBOR    N/A     -3  -8  79 SW6       30.17R WCI -15          
IRONWOOD       FAIR       8   5  87 E9        30.09S WCI  -5          
$$

ABBREVIATIONS USED IN REMARKS
   TC - TEMPERATURE IN CELSIUS
  WCI - WIND CHILL INDEX
   HX - HEAT INDEX
  VSB - VISIBILITY